Regional Weather Roundup
Issued by NWS

Home | Current Version | Previous Version | Text Only | Print | Product List | Glossary Off
Versions: 1 2 3 4 5 6 7 8 9 10 11 12 13 14 15 16 17 18 19 20 21 22 23 24 25 26 27 28 29 30 31 32 33 34 35 36 37 38 39 40 41 42 43 44 45 46 47 48 49 50

000
ASUS43 KFSD 222010
RWRSD

WEATHER ROUNDUP FOR SOUTH DAKOTA
NATIONAL WEATHER SERVICE SIOUX FALLS SD
200 PM CST WED NOV 22 2017

NOTE: "FAIR" INDICATES FEW OR NO CLOUDS BELOW 12,000 FEET WITH NO
SIGNIFICANT WEATHER AND/OR OBSTRUCTIONS TO VISIBILITY.


SDZ001>005-009-010-012>017-222100-
NORTHWEST AND NORTH CENTRAL SOUTH DAKOTA

CITY           SKY/WX    TMP DP  RH WIND       PRES   REMARKS
BUFFALO          N/A     68  39  34 W37G44    29.89F
FAITH            N/A     65  37  35 W21G28    29.91F
MOBRIDGE       CLOUDY    53  27  36 S9        29.84F
$$

SDZ012>016-024>037-041>051-057-063-072>074-222100-
SOUTHWEST AND SOUTH CENTRAL SOUTH DAKOTA

CITY           SKY/WX    TMP DP  RH WIND       PRES   REMARKS
RAPID CTY ARPT MOSUNNY   72  37  28 NW25G39   29.99F
PIERRE         CLOUDY    52  30  43 SW3       29.90F
CUSTER         CLOUDY    60  33  36 W18G30    30.12S
ELLSWORTH AFB  PTSUNNY   71  38  29 NW29G41   29.98F
PHILIP         SUNNY     70  38  31 NW26G32   29.94F
PINE RIDGE     SUNNY     67  36  31 W12       30.05F
SPEARFISH      FAIR      64  37  36 W22G32    30.04F
WINNER         FAIR      68  37  32 W15       29.95F
$$

SDZ004>011-016>023-039-040-222100-
NORTHEAST SOUTH DAKOTA

CITY           SKY/WX    TMP DP  RH WIND       PRES   REMARKS
ABERDEEN       CLOUDY    32  18  56 S20G26    29.90F WCI  20
WATERTOWN      CLOUDY    34  18  52 S23G30    29.94F WCI  22
BROOKINGS      CLOUDY    34  16  47 S21G26    30.00F WCI  22
SISSETON         N/A     37  18  46 S14       29.91F
$$

SDZ017-020-022-023-036>040-048>070-222100-
SOUTHEAST SOUTH DAKOTA

CITY           SKY/WX    TMP DP  RH WIND       PRES   REMARKS
SIOUX FALLS    CLOUDY    36  18  48 S20G28    30.05F
HURON          CLOUDY    37  20  50 S16G22    29.97F
CHAMBERLAIN    SUNNY     56  33  41 S5        29.95F
MITCHELL       MOSUNNY   43  21  41 S12       30.01F
YANKTON        CLOUDY    43  19  38 S16       30.05F
$$

ABBREVIATIONS USED IN REMARKS
   TC - TEMPERATURE IN CELSIUS
  WCI - WIND CHILL INDEX
   HX - HEAT INDEX
  VSB - VISIBILITY





USA.gov is the U.S. government's official web portal to all federal, state and local government web resources and services.